EA7JCM-13 Weather Reports


Display with metric or nautical units.
time (UTC)temp
F
wind
direction
speed
MPH
gust
MPH
rain 1hr
in
rain 24hr
in
rain mn
in
humidity
%
barometer
mb
20260510223504 54 169 0.0 4.0 0.00 0.30 0.00 78 1013.0
20260510223004 54 175 2.0 6.0 0.00 0.30 0.00 78 1013.1
20260510222504 55 181 2.0 6.0 0.00 0.30 0.00 77 1013.1
20260510222004 55 183 2.0 8.0 0.00 0.30 0.00 77 1013.3
20260510221504 55 179 3.0 8.0 0.00 0.30 0.00 77 1013.0
20260510221004 55 167 4.0 8.0 0.00 0.30 0.00 76 1013.0
20260510220503 55 176 2.0 11.0 0.00 0.30 0.00 76 1012.9
20260510220007 55 199 3.0 11.0 0.00 0.30 0.00 76 1013.1
20260510215503 55 192 5.0 11.0 0.00 0.30 0.31 77 1012.9
20260510215002 55 171 3.0 11.0 0.00 0.30 0.31 79 1012.8
20260510214502 55 174 4.0 9.0 0.00 0.30 0.31 81 1012.9
20260510214002 55 188 4.0 11.0 0.00 0.30 0.31 81 1012.5
20260510213503 56 193 5.0 11.0 0.00 0.30 0.31 80 1012.7
20260510213002 56 192 3.0 11.0 0.00 0.30 0.31 79 1012.6
20260510212502 56 187 4.0 11.0 0.00 0.30 0.31 79 1012.9
20260510212003 56 192 4.0 11.0 0.00 0.30 0.31 79 1012.9
20260510211502 56 195 6.0 11.0 0.00 0.30 0.31 80 1012.9
20260510211002 56 172 5.0 11.0 0.00 0.30 0.31 80 1012.9
20260510210502 56 167 3.0 9.0 0.00 0.30 0.31 81 1012.8
20260510210003 56 179 4.0 11.0 0.00 0.30 0.31 81 1013.0
20260510205502 56 188 3.0 11.0 0.00 0.30 0.31 80 1012.6
20260510205003 56 177 3.0 9.0 0.00 0.30 0.31 80 1013.0
20260510204503 56 167 3.0 13.0 0.00 0.30 0.31 80 1012.6
20260510204002 56 173 4.0 13.0 0.00 0.30 0.31 79 1012.6
20260510203502 56 169 4.0 11.0 0.00 0.30 0.31 79 1012.5
20260510203002 56 170 5.0 11.0 0.00 0.30 0.31 79 1012.3
20260510202502 56 168 4.0 11.0 0.00 0.30 0.31 79 1012.6
20260510202002 56 172 3.0 11.0 0.00 0.30 0.31 80 1012.6
20260510201503 56 182 2.0 11.0 0.00 0.30 0.31 80 1012.4
20260510201002 56 171 6.0 11.0 0.00 0.30 0.31 80 1012.3
20260510200503 56 182 6.0 9.0 0.00 0.30 0.31 80 1012.4
20260510200002 56 182 3.0 9.0 0.00 0.30 0.31 81 1012.3
20260510195502 56 170 4.0 9.0 0.00 0.30 0.31 81 1012.3
20260510195002 56 175 4.0 9.0 0.00 0.30 0.31 81 1012.4
20260510194502 56 194 4.0 8.0 0.00 0.30 0.31 81 1012.3
20260510194002 56 183 3.0 8.0 0.00 0.30 0.31 82 1012.1
20260510193503 56 171 4.0 11.0 0.00 0.30 0.31 82 1012.3
20260510193003 56 174 4.0 11.0 0.00 0.30 0.31 83 1012.3
20260510192503 56 181 4.0 8.0 0.00 0.30 0.31 84 1012.2
20260510192003 57 184 3.0 8.0 0.00 0.30 0.31 85 1012.2
20260510191502 57 176 2.0 7.0 0.00 0.30 0.31 85 1012.3
20260510191003 57 175 4.0 7.0 0.00 0.30 0.31 85 1012.2
20260510190502 57 178 2.0 8.0 0.00 0.30 0.31 85 1012.3
20260510190002 57 186 2.0 8.0 0.00 0.30 0.31 85 1012.1
20260510185503 57 182 2.0 8.0 0.00 0.30 0.31 85 1012.0
20260510185002 57 164 2.0 8.0 0.00 0.30 0.31 84 1012.2
20260510184503 57 129 4.0 8.0 0.00 0.30 0.31 84 1011.8
20260510184003 57 111 2.0 7.0 0.00 0.30 0.31 84 1012.1
20260510183502 58 157 2.0 6.0 0.00 0.30 0.31 84 1011.8
20260510183002 57 147 2.0 7.0 0.00 0.30 0.31 84 1012.0
20260510182503 57 141 3.0 7.0 0.00 0.30 0.31 84 1011.6
20260510182002 57 183 4.0 9.0 0.00 0.30 0.31 84 1011.8
20260510181502 58 187 4.0 9.0 0.00 0.30 0.31 84 1011.6
20260510181002 58 173 7.0 9.0 0.00 0.30 0.31 83 1011.8
20260510180502 58 183 4.0 14.0 0.00 0.30 0.31 84 1011.6
20260510180003 57 196 4.0 14.0 0.00 0.30 0.31 85 1011.7
20260510175502 57 203 8.0 14.0 0.00 0.30 0.31 86 1011.7
20260510175003 57 210 6.0 9.0 0.00 0.30 0.31 88 1011.6
20260510174503 56 201 5.0 11.0 0.00 0.30 0.31 90 1011.9
20260510174003 56 179 6.0 11.0 0.00 0.30 0.30 91 1011.4
20260510173502 56 189 4.0 11.0 0.00 0.30 0.30 93 1011.5
20260510173003 56 190 5.0 11.0 0.00 0.30 0.30 93 1011.3
20260510172503 56 183 6.0 13.0 0.00 0.30 0.30 94 1011.4
20260510172003 56 187 5.0 13.0 0.00 0.30 0.30 94 1011.6
20260510171503 56 193 6.0 11.0 0.01 0.30 0.30 94 1011.7
20260510171002 56 194 5.0 11.0 0.01 0.31 0.30 94 1011.6
20260510170502 56 199 6.0 11.0 0.01 0.31 0.30 94 1011.7
20260510170002 56 203 4.0 13.0 0.01 0.31 0.30 94 1011.4
20260510165502 55 205 5.0 13.0 0.02 0.31 0.30 94 1011.7
20260510165003 55 205 8.0 13.0 0.02 0.35 0.30 94 1011.7
20260510164502 55 200 6.0 15.0 0.06 0.35 0.30 95 1011.5
20260510164002 55 220 8.0 16.0 0.13 0.35 0.30 95 1011.7
20260510163502 55 215 10.0 16.0 0.17 0.35 0.30 94 1011.6
20260510163002 55 191 8.0 15.0 0.17 0.35 0.30 94 1011.6
20260510162504 55 197 8.0 15.0 0.17 0.38 0.30 94 1011.6
20260510162003 54 197 9.0 17.0 0.17 0.41 0.30 94 1011.7
20260510161503 55 199 8.0 20.0 0.15 0.41 0.28 94 1011.5
20260510161002 55 204 10.0 20.0 0.15 0.41 0.28 94 1011.4
20260510160503 55 217 12.0 20.0 0.15 0.41 0.28 94 1011.3
20260510160003 55 211 7.0 21.0 0.15 0.41 0.28 94 1011.4
20260510155503 55 200 9.0 24.0 0.14 0.40 0.27 93 1011.2
20260510155003 55 211 9.0 24.0 0.13 0.41 0.26 93 1011.3
20260510154502 55 219 11.0 29.0 0.08 0.37 0.21 91 1011.2
20260510154002 58 205 11.0 29.0 0.02 0.31 0.15 87 1011.1
20260510153503 61 177 7.0 14.0 0.00 0.28 0.13 84 1010.6
20260510153003 61 176 4.0 14.0 0.00 0.28 0.13 83 1010.4
20260510152503 61 183 7.0 14.0 0.00 0.28 0.13 83 1010.3
20260510152002 61 187 8.0 14.0 0.00 0.28 0.13 83 1010.0
20260510151503 61 191 7.0 13.0 0.00 0.28 0.13 83 1010.2
20260510151003 61 192 7.0 14.0 0.00 0.28 0.13 84 1010.3
20260510150502 60 184 6.0 14.0 0.00 0.28 0.13 86 1010.3
20260510150003 61 182 2.0 9.0 0.00 0.28 0.13 89 1010.2
20260510145503 60 178 4.0 9.0 0.00 0.28 0.13 90 1010.4
20260510145003 59 143 4.0 9.0 0.01 0.28 0.13 90 1010.5
20260510144502 59 161 4.0 13.0 0.02 0.28 0.13 91 1010.4
20260510144003 58 185 4.0 13.0 0.04 0.28 0.13 92 1010.7
20260510143503 57 191 8.0 11.0 0.04 0.28 0.13 92 1010.5
20260510143002 58 188 4.0 11.0 0.04 0.28 0.13 93 1010.9
20260510142503 58 178 3.0 11.0 0.04 0.28 0.13 94 1010.9
20260510142002 57 194 4.0 11.0 0.04 0.28 0.13 94 1011.1
20260510141503 57 184 2.0 11.0 0.04 0.28 0.13 94 1011.0
20260510141003 56 177 3.0 13.0 0.04 0.28 0.13 94 1011.3
20260510140502 56 187 5.0 13.0 0.04 0.28 0.13 93 1011.5
20260510140003 56 196 4.0 9.0 0.04 0.28 0.13 93 1011.6
20260510135503 56 209 6.0 11.0 0.04 0.28 0.13 93 1011.3
20260510135002 56 207 4.0 11.0 0.02 0.27 0.12 93 1011.3
20260510134503 56 208 6.0 11.0 0.01 0.26 0.11 93 1011.1
20260510134002 57 224 4.0 11.0 0.00 0.25 0.09 93 1011.3
20260510133502 57 235 6.0 11.0 0.00 0.25 0.09 93 1011.4
20260510133003 57 221 3.0 9.0 0.00 0.25 0.09 93 1011.0
20260510132502 57 220 4.0 9.0 0.00 0.25 0.09 93 1011.1
20260510132003 57 224 6.0 11.0 0.00 0.25 0.09 93 1011.2
20260510131503 57 221 5.0 11.0 0.01 0.25 0.09 93 1011.5
20260510131002 57 220 7.0 11.0 0.01 0.25 0.09 93 1011.1
20260510130503 57 217 6.0 11.0 0.01 0.25 0.09 93 1011.4
20260510130002 57 203 5.0 9.0 0.01 0.25 0.09 93 1011.3
20260510125503 58 201 4.0 11.0 0.01 0.25 0.09 93 1011.3
20260510124503 56 209 7.0 11.0 0.02 0.25 0.09 93 1011.3
20260510124003 56 207 5.0 11.0 0.02 0.25 0.09 93 1011.5
20260510123002 57 197 5.0 11.0 0.04 0.25 0.09 93 1011.5
20260510121502 56 193 9.0 14.0 0.02 0.24 0.08 92 1011.7
20260510121003 56 185 8.0 11.0 0.02 0.24 0.08 92 1011.6
20260510120502 56 179 7.0 14.0 0.02 0.24 0.08 92 1011.8
20260510120003 56 178 7.0 14.0 0.02 0.24 0.08 92 1011.9
20260510115503 56 190 8.0 13.0 0.02 0.24 0.08 91 1011.6
20260510115002 56 203 7.0 13.0 0.02 0.24 0.08 91 1011.8
20260510114503 56 204 7.0 14.0 0.01 0.22 0.07 90 1011.9
20260510114002 56 205 7.0 18.0 0.01 0.22 0.07 89 1012.0
20260510113503 57 210 8.0 18.0 0.01 0.22 0.07 85 1011.8
20260510113003 59 208 12.0 18.0 0.00 0.21 0.06 76 1011.6
20260510112504 61 185 7.0 17.0 0.00 0.21 0.06 67 1011.4
20260510111503 62 178 7.0 13.0 0.00 0.21 0.06 62 1011.1
20260510111002 62 177 4.0 13.0 0.00 0.21 0.06 63 1011.1
20260510110503 62 170 4.0 8.0 0.00 0.21 0.06 62 1011.1
20260510110003 62 164 3.0 9.0 0.00 0.21 0.06 62 1011.2
20260510105502 62 163 3.0 13.0 0.00 0.21 0.06 62 1011.2
20260510105003 62 158 2.0 16.0 0.00 0.21 0.06 62 1011.2
20260510104503 62 141 7.0 16.0 0.00 0.21 0.06 60 1011.1
20260510104003 62 164 2.0 18.0 0.00 0.21 0.06 60 1011.1
20260510103503 62 172 5.0 18.0 0.00 0.21 0.06 60 1011.0
20260510103003 62 179 6.0 17.0 0.00 0.21 0.06 61 1010.9
20260510102503 62 185 8.0 17.0 0.00 0.21 0.06 63 1011.0
20260510102003 63 172 5.0 14.0 0.00 0.21 0.06 60 1011.1
20260510101503 63 166 6.0 14.0 0.00 0.21 0.06 60 1011.0
20260510101003 63 165 7.0 16.0 0.00 0.21 0.06 60 1011.0
20260510100503 63 175 5.0 16.0 0.00 0.21 0.06 60 1011.2
20260510100003 63 178 9.0 16.0 0.00 0.21 0.06 60 1011.2
20260510095503 63 173 3.0 8.0 0.00 0.21 0.06 63 1011.3
20260510095003 62 173 3.0 8.0 0.00 0.21 0.06 63 1011.1
20260510094503 62 174 3.0 8.0 0.00 0.21 0.06 64 1011.1
20260510094003 62 162 4.0 11.0 0.00 0.21 0.06 64 1011.4
20260510093503 61 149 4.0 14.0 0.00 0.21 0.06 65 1011.2
20260510093003 61 145 4.0 14.0 0.00 0.21 0.06 66 1011.2
20260510092503 61 155 4.0 13.0 0.00 0.21 0.06 67 1011.1
20260510092003 61 161 4.0 15.0 0.00 0.21 0.06 67 1011.3
20260510091503 61 163 9.0 15.0 0.00 0.21 0.06 66 1011.5
20260510091003 61 155 3.0 8.0 0.00 0.22 0.06 68 1011.3
20260510090503 61 176 3.0 11.0 0.00 0.22 0.06 69 1011.3
20260510090004 61 189 3.0 11.0 0.00 0.22 0.06 70 1011.2
20260510085503 60 187 3.0 11.0 0.00 0.22 0.06 72 1011.0
20260510085003 60 195 4.0 8.0 0.00 0.22 0.06 75 1011.4
20260510084503 58 179 2.0 13.0 0.00 0.22 0.06 81 1011.2
20260510084003 57 181 4.0 13.0 0.00 0.22 0.06 85 1011.3
20260510083503 56 176 5.0 9.0 0.00 0.22 0.06 87 1011.3
20260510083003 56 183 2.0 7.0 0.01 0.22 0.06 90 1011.5
20260510082503 54 202 5.0 8.0 0.01 0.22 0.06 91 1011.4
20260510082002 54 204 4.0 8.0 0.01 0.22 0.06 91 1011.6
20260510081503 54 200 4.0 7.0 0.02 0.22 0.06 91 1011.7
20260510081003 53 194 4.0 8.0 0.02 0.22 0.06 91 1011.6
20260510080503 53 192 4.0 8.0 0.02 0.22 0.06 91 1011.8
20260510080003 53 194 4.0 8.0 0.02 0.22 0.06 91 1011.7
20260510075503 53 196 4.0 8.0 0.04 0.22 0.06 91 1011.8
20260510075004 53 193 3.0 7.0 0.04 0.22 0.06 91 1011.9
20260510074503 53 179 3.0 11.0 0.06 0.22 0.06 90 1011.8
20260510074003 53 191 4.0 11.0 0.06 0.24 0.06 90 1011.7
20260510073503 53 213 6.0 9.0 0.06 0.24 0.06 90 1011.9
20260510073003 53 214 5.0 9.0 0.05 0.22 0.05 89 1011.7
20260510072503 53 202 4.0 6.0 0.05 0.22 0.05 89 1011.7
20260510072003 53 192 4.0 6.0 0.05 0.22 0.05 89 1011.7
20260510071503 53 183 4.0 6.0 0.04 0.21 0.04 88 1011.7
20260510071003 53 172 2.0 8.0 0.04 0.21 0.04 87 1011.8
20260510070502 54 173 2.0 8.0 0.04 0.21 0.04 87 1011.8
20260510070003 54 169 4.0 7.0 0.04 0.21 0.04 86 1011.6
20260510065503 54 173 2.0 9.0 0.02 0.20 0.02 86 1011.6
20260510065003 54 172 4.0 9.0 0.01 0.19 0.01 85 1011.6
20260510064503 54 125 4.0 14.0 0.00 0.18 0.00 86 1011.5
20260510064003 55 124 6.0 14.0 0.00 0.18 0.00 81 1011.3
20260510063503 56 143 4.0 11.0 0.00 0.18 0.00 75 1011.0
20260510063003 56 157 6.0 11.0 0.00 0.18 0.00 72 1011.1
20260510062505 56 176 4.0 9.0 0.00 0.18 0.00 72 1010.8
20260510062003 56 137 3.0 7.0 0.00 0.18 0.00 73 1011.0
20260510061503 56 120 4.0 13.0 0.00 0.18 0.00 74 1010.9
20260510061003 56 182 4.0 13.0 0.00 0.18 0.00 74 1010.9
20260510060503 56 168 4.0 9.0 0.00 0.18 0.00 72 1011.0
20260510060004 56 145 4.0 9.0 0.00 0.18 0.00 72 1011.0
20260510055503 56 160 3.0 9.0 0.00 0.18 0.00 71 1010.8
20260510054503 56 176 4.0 8.0 0.00 0.18 0.00 69 1010.8
20260510054003 56 128 3.0 14.0 0.00 0.19 0.00 69 1011.0
20260510053503 56 104 4.0 14.0 0.00 0.19 0.00 68 1010.6
20260510053003 56 138 3.0 8.0 0.00 0.19 0.00 67 1010.5
20260510052503 56 124 4.0 7.0 0.00 0.19 0.00 67 1010.6
20260510052004 56 103 4.0 13.0 0.00 0.19 0.00 66 1010.5
20260510051503 56 136 4.0 13.0 0.00 0.19 0.00 66 1010.7
20260510051004 56 172 3.0 8.0 0.00 0.19 0.00 67 1010.5
20260510045503 56 179 4.0 7.0 0.00 0.19 0.00 67 1010.4
20260510045003 56 161 2.0 7.0 0.00 0.19 0.00 69 1010.3
20260510044503 56 152 3.0 7.0 0.00 0.19 0.00 69 1010.4
20260510044003 56 147 2.0 7.0 0.00 0.19 0.00 69 1010.6
20260510043004 56 125 3.0 11.0 0.00 0.19 0.00 68 1010.4
20260510042503 56 106 4.0 11.0 0.00 0.19 0.00 68 1010.7
20260510041503 56 124 3.0 8.0 0.00 0.19 0.00 69 1010.6
20260510041003 55 118 3.0 6.0 0.00 0.19 0.00 70 1010.8
20260510040503 55 118 3.0 6.0 0.00 0.19 0.00 70 1010.8
20260510040004 55 119 3.0 7.0 0.00 0.19 0.00 70 1010.6
20260510035503 55 99 3.0 9.0 0.00 0.19 0.00 71 1010.8
20260510035004 55 91 4.0 9.0 0.00 0.19 0.00 71 1010.6
20260510034503 55 121 4.0 9.0 0.00 0.19 0.00 71 1010.7
20260510034003 55 152 4.0 9.0 0.00 0.19 0.00 71 1010.7
20260510033503 55 136 3.0 7.0 0.00 0.19 0.00 71 1010.7
20260510033003 55 133 2.0 7.0 0.00 0.19 0.00 71 1011.0
20260510032504 55 144 3.0 7.0 0.00 0.19 0.00 71 1010.9
20260510032003 55 131 3.0 7.0 0.00 0.19 0.00 71 1010.8
20260510031503 55 120 2.0 7.0 0.00 0.19 0.00 72 1010.8
20260510031003 55 104 2.0 6.0 0.00 0.19 0.00 73 1010.8
20260510030503 55 114 2.0 6.0 0.00 0.19 0.00 73 1011.0
20260510030003 55 127 2.0 4.0 0.00 0.19 0.00 73 1011.0
20260510025503 55 113 2.0 4.0 0.00 0.19 0.00 73 1010.8
20260510025004 55 117 2.0 4.0 0.00 0.19 0.00 72 1010.8
20260510024503 55 128 2.0 6.0 0.00 0.19 0.00 72 1010.9
20260510023503 56 158 2.0 7.0 0.00 0.19 0.00 71 1011.0
20260510023003 56 156 2.0 7.0 0.00 0.19 0.00 71 1011.0
20260510022504 56 141 2.0 6.0 0.00 0.19 0.00 72 1011.0
20260510022004 56 150 3.0 9.0 0.00 0.19 0.00 72 1011.1
20260510021503 56 157 3.0 9.0 0.00 0.19 0.00 71 1011.1
20260510021004 56 163 5.0 9.0 0.00 0.19 0.00 71 1011.1
20260510020503 56 156 2.0 6.0 0.00 0.19 0.00 72 1011.1
20260510020003 56 141 2.0 7.0 0.00 0.19 0.00 72 1010.9
20260510015504 56 141 3.0 7.0 0.00 0.19 0.00 71 1010.9
20260510015003 55 151 3.0 8.0 0.00 0.19 0.00 72 1011.0
20260510014003 55 132 2.0 4.0 0.00 0.19 0.00 74 1011.0
20260510013504 55 137 3.0 4.0 0.00 0.19 0.00 74 1010.9
20260510013004 55 136 2.0 4.0 0.00 0.19 0.00 74 1011.1
20260510012503 55 139 2.0 4.0 0.00 0.19 0.00 75 1011.3
20260510012003 55 108 2.0 4.0 0.00 0.19 0.00 76 1011.2
20260510011503 55 111 2.0 6.0 0.00 0.19 0.00 76 1011.1
20260510011003 55 113 2.0 6.0 0.00 0.19 0.00 76 1011.3
20260510010504 55 116 2.0 4.0 0.00 0.19 0.00 77 1011.3
20260510005504 55 98 2.0 4.0 0.00 0.19 0.00 77 1011.3
20260510005003 55 114 2.0 4.0 0.00 0.19 0.00 76 1011.5
20260510004504 55 125 2.0 4.0 0.00 0.19 0.00 77 1011.4
20260510004003 55 134 2.0 4.0 0.00 0.19 0.00 76 1011.5
20260510003503 56 160 1.0 4.0 0.00 0.19 0.00 76 1011.7
20260510003004 56 157 2.0 4.0 0.00 0.19 0.00 75 1011.7
20260510002503 56 151 2.0 4.0 0.00 0.19 0.00 76 1011.6
20260510002003 56 146 3.0 4.0 0.00 0.19 0.00 76 1011.5
20260510001504 56 149 2.0 4.0 0.00 0.19 0.00 77 1011.3
20260510001003 56 188 2.0 4.0 0.00 0.19 0.00 77 1011.6
20260510000503 55 177 2.0 4.0 0.00 0.19 0.00 78 1011.5
20260510000004 55 140 2.0 4.0 0.00 0.19 0.00 78 1011.7
20260509235503 55 166 2.0 4.0 0.00 0.19 0.00 79 1011.7
20260509235004 55 161 2.0 4.0 0.00 0.19 0.00 79 1011.7
20260509234503 55 152 1.0 4.0 0.00 0.19 0.00 79 1011.7
20260509234003 55 162 2.0 4.0 0.00 0.19 0.00 79 1011.7
20260509233504 55 172 2.0 4.0 0.00 0.19 0.00 80 1011.7
20260509233003 54 185 2.0 4.0 0.00 0.19 0.00 82 1011.7
20260509232504 54 188 2.0 4.0 0.00 0.19 0.00 85 1011.9
20260509232003 54 188 2.0 4.0 0.00 0.19 0.00 86 1011.8
20260509230504 54 190 2.0 4.0 0.00 0.19 0.00 89 1011.9
20260509230003 54 190 3.0 4.0 0.00 0.19 0.00 89 1011.8
20260509225505 54 186 2.0 4.0 0.00 0.19 0.00 89 1011.9
20260509225003 54 187 3.0 4.0 0.00 0.19 0.00 88 1011.9
20260509224504 54 193 3.0 6.0 0.00 0.19 0.00 88 1012.0
20260509224004 54 190 2.0 6.0 0.00 0.19 0.00 88 1011.9